Tracking 30995 objects as of 5-Jul-2025
HD Live streaming from Space Station
objects crossing your sky now

COSMOS 970 DEB

Track COSMOS 970 DEB now!
10-day predictions


NORAD ID: 14907
Int'l Code: 1977-121BL
Perigee: 1,002.5 km
Apogee: 1,120.1 km
Inclination: 66.0 °
Period: 106.3 minutes
Semi major axis: 7432 km
RCS: 0.0067 m2 (small)
Launch date: December 21, 1977
Source: Commonwealth of Independent States (former USSR) (CIS)
Launch site: TYURATAM MISSILE AND SPACE COMPLEX (TTMTR)

Note: This is SATELLITE DEBRIS
Your satellite tracking list
Your tracking list is empty




NASA's NSSDC Master Catalog

Two Line Element Set (TLE):
1 14907U 77121BL  25186.18758998  .00000212  00000-0  40905-3 0  9992
2 14907  66.0280  90.2814 0079101 257.0404 263.8979 13.54944419154344
Source of the keplerian elements: AFSPC